200 serials | install creator pro 2.0 build 41

Date Name Success Rate
2009-10-17 06:20:50 CyD WEB Calendar Creator 2.0-iDK0DAY 16%
2009-10-17 06:22:21 EZ Mp3 Creator 1.2.7 Build 181 28%
2009-10-17 06:22:55 Fast Folder And Command V1.0 Build 41 21%
2009-10-17 06:30:15 Presentation Wizard V2.0a 41 0%
2009-10-17 06:35:38 Web Creator Pro V3.0.0.13.3 0%
2009-10-22 23:27:20 Anotha ID3 Editor Jan-41 0%
2009-10-22 23:27:25 AudioGizmo Ringtone Creator 2.0 0%
2009-10-22 23:45:49 Camfrog Video Chat 41 0%
2009-10-22 23:45:52 ClickTeam Install Creator Pro 2.0 Build 28 83%
2009-10-22 23:45:52 ClickTeam Install Creator Pro V2.0.0.32 0%
2009-10-22 23:45:52 Clickteam InstallCreator Pro 2.0.0.24 (version 2.0 Build 24) 0%
2009-10-22 23:45:57 CyD WEB Calendar Creator 2.0 0%
2009-10-22 23:47:39 Easy Autorun Creator 2.0 0%
2009-10-22 23:47:40 Easy PDF Creator 1.00 Build 620 0%
2009-10-22 23:47:43 EZ Photo Calendar Creator 2.0 20%
2009-10-22 23:47:50 Fast Folder And Command V1 Build.41 0%
2009-10-22 23:47:50 Fast Folder And Command V1.0 Build.41 0%
2009-10-22 23:47:52 FlashFXP 2.0 (build 900) 0%
2009-10-22 23:47:52 FlashFXP 2.0 Build: 909 0%
2009-10-22 23:47:53 Forte Agent 2.0 Build 646 0%
2009-10-22 23:48:00 Ghostsurf 2.0 Build 39 Pro 0%
2009-10-22 23:48:00 GhostSurf Express 2.0 Build 38 0%
2009-10-22 23:48:01 GreenBrowser 2.0 Build 0105 0%
2009-10-22 23:48:01 GreenBrowser 2.0 Build 1218 0%
2009-10-22 23:48:17 Install Creator 0%
2009-10-22 23:48:17 Install Creator 2 Pro 0%
2009-10-22 23:48:17 Install Creator 2.0 #29 73%
2009-10-22 23:48:17 Install Creator Pro 0%
2009-10-22 23:48:17 Install Creator PRO 2.0.29 58%
2009-10-22 23:48:17 Install Creator Pro V 2.0 0%
2009-10-22 23:48:17 Intervideo WinDvd Creator 2.0 + ? GOLD 0%
2009-10-22 23:48:17 InterVideo WinDVD Creator Platinum 2.0 0%
2009-10-22 23:48:29 Karaoke Cdr Creator Pro 0%
2009-10-22 23:48:51 Monterey Barcode Creator 2.0 Build 53360 0%
2009-10-22 23:48:51 Movie DVD Creator 2.0 0%
2009-10-22 23:49:26 Presentation Wizard 2.0a.41 0%
2009-10-22 23:49:42 Reget 2.0 Build 74 0%
2009-10-22 23:49:52 SensoBook Creator 2.0 0%
2009-10-22 23:49:52 Serial Splitter 2.0 Build 526 0%
2009-10-22 23:49:55 Solid Capture 2.0 Build 070 0%
2009-10-22 23:49:55 Solid Converter 2.0 Build 100 0%
2009-10-22 23:49:56 Song List Creator 2.0 100%
2009-10-22 23:49:56 Sonic PDF Creator 2.0 25%
2009-10-22 23:50:01 Super DVD Creator 8.0 Build 2005.01.24 0%
2009-10-22 23:50:01 Super DVD Creator 9.8 Build 20080611 100%
2009-10-22 23:50:09 Tetruzzle 2.0 Build 20010502 0%
2009-10-22 23:50:34 Web Creator Pro 3.0.0.13.3 0%
2009-10-22 23:50:34 Web Creator Pro 5 53%
2009-10-22 23:50:34 WebCalendar Creator 2002 (Build 107) 0%
2009-10-22 23:50:34 WebCalendar Creator Pro 2002.106b 0%
2009-10-22 23:50:37 WinDVD Creator 2.0 0%
2009-10-22 23:50:37 WinDVD Creator Platinum 2.0 Platinum 0%
2009-10-22 23:50:37 WinDVD Creator Platinum Retail 2.0 0%
2009-10-22 23:50:45 Xilisoft DVD Creator 2.0.14 Build-1208 0%
2009-10-22 23:50:45 Xilisoft DVD Creator 3.0.43 Build 0402 71%
2009-10-22 23:50:52 Ytunnel Version 2.0 Build 352 0%
2011-09-08 09:45:41 20/20 PC-Install Pro v5.08 0%
2011-09-08 09:45:41 20/20 Pc-Install Pro v5.08 Code 80%
2011-09-08 09:45:43 2020 Install Creator DOS by RiSE 0%
2011-09-08 09:45:43 2020 PC-Install Pro v5.08 0%
2011-09-08 09:45:56 3D Button Creator Pro 0%
2011-09-08 09:57:23 Absolutely Online 2.0 build 17 0%
2011-09-08 10:00:27 Adobe Dreamweaver CS3 9.0 build 41 0%
2011-09-08 10:00:33 Adobe InDesign 2.0 Build 416 0%
2011-09-08 10:02:16 Agent 2.0 Build 646 0%
2011-09-08 10:04:54 Album Creator Pro 3.5.586 0%
2011-09-08 10:06:12 Alteros Viewer 2.0 Build 2007 0%
2011-09-08 10:06:24 Amazing MP3 Creator V2.20 build 2860 0%
2011-09-08 10:07:02 Anotha ID3 Editor Jan-41 0%
2011-09-08 10:10:16 AudioGizmo Ringtone Creator 2.0 0%
2011-09-08 10:10:19 AudioMagic 2.0 Build 2 0%
2011-09-08 10:20:54 BookMarx 2.0 Build 003 0%
2011-09-08 10:21:58 Bulk Folders Creator 2.0 0%
2011-09-08 10:24:34 CD Menu Creator 2.0 0%
2011-09-08 10:25:44 Cheetah Audio CD Creator 2.0 0%
2011-09-08 10:26:40 Click Team Install Creator Pro 2 7%
2011-09-08 10:26:43 ClickTeam Install Maker Pro Retail 1.3n 0%
2011-09-08 10:26:43 ClickTeam Install Maker Pro Retail v1.3n 0%
2011-09-08 10:28:48 ConversionsToGo 2.0 Build 1006 0%
2011-09-08 10:29:06 CoolLabel 2.0 Build 43 0%
2011-09-08 10:29:06 CoolLabel 2.0 Build 59 0%
2011-09-08 10:29:06 CoolLabel 2.0 Build 75 0%
2011-09-08 10:29:06 CoolLabel 2.0 Build 77 0%
2011-09-08 10:29:06 CoolLabel 2.0 Build 79 0%
2011-09-08 10:29:06 CoolLabel 2.0 Build 81 0%
2011-09-08 10:29:06 CoolLabel 2.0 Build 83 0%
2011-09-08 10:32:08 Creator Pro 2.1 0%
2011-09-08 10:32:08 Creator Pro v2.1 40%
2011-09-08 10:46:49 Easy Autorun Creator 2.0 0%
2011-09-08 10:47:02 Easy Install Creator 1.0 0%
2011-09-08 10:47:02 Easy Install Creator v1.0 0%
2011-09-08 10:47:10 Easy PDF Creator v1.00 build 620 0%
2011-09-08 10:50:56 EZ MP3 Creator v1.2.0 Build 156 0%
2011-09-08 10:50:56 EZ MP3 Creator v1.2.8 Build 192 0%
2011-09-08 10:50:56 EZ Photo Calendar Creator 2.0 42%
2011-09-08 10:53:58 Fast Folder and Command 1.0 Build 41 0%
2011-09-08 10:54:00 Fast.Folder.and.Command 1.0.Build.41 0%
2011-09-08 10:54:29 File Slicer 2.0 Build 09001 0%
2011-09-08 10:55:30 FlashFXP 2.0 Build 905 0%
2011-09-08 10:56:18 Forte Agent 2.0 Build 646 0%
2011-09-08 11:02:14 GenDesigner beta 2.0 build 4 0%
2011-09-08 11:02:36 GhostSurf Express 2.0 Build 0%
2011-09-08 11:03:04 GoldView 2.0 build 164 0%
2011-09-08 11:03:37 GreenBrowser 2.0 build 0105 0%
2011-09-08 11:03:37 GreenBrowser 2.0 build 1218 0%
2011-09-08 11:07:22 HMN Web Gallery Creator 2.0 0%
2011-09-08 11:09:17 HotBurn 2.0 Build 114 0%
2011-09-08 11:14:21 Image Map Creator 2.0 66%
2011-09-08 11:14:45 Impression Creator Pro 1.0 0%
2011-09-08 11:15:35 Install Creator 2.00.24 2.00 build 24 0%
2011-09-08 11:15:35 Install Creator Easy v1.0 0%
2011-09-08 11:15:35 InStall It 2.0 0%
2011-09-08 11:15:35 Install Maker Pro 0%
2011-09-08 11:15:35 Install Maker Pro v1.3 0%
2011-09-08 11:15:35 Install Shield 5 Professional International East Edition Build 224 0%
2011-09-08 11:15:35 Install Shield v1.1a Pro 0%
2011-09-08 11:15:35 Install Shield v5.0 build 207 0%
2011-09-08 11:15:37 Install Shield v5.0 Pro 0%
2011-09-08 11:15:37 Install Shield v5.0 Pro Win95 0%
2011-09-08 11:15:37 Install Shield v5.1 Pro core 0%
2011-09-08 11:15:37 Install Shield v5.1 Pro examples 0%
2011-09-08 11:15:37 Install Shield v5.1 Pro help files 100%
2011-09-08 11:15:37 Install Shield v5.1 Pro VB template 0%
2011-09-08 11:15:37 Install Shiled Pro 5 0%
2011-09-08 11:15:37 Install-Shield v5.0 Build 207 0%
2011-09-08 11:15:37 Install-Us 3.7.Build 2 0%
2011-09-08 11:15:37 Install-Us Pro 3.0 0%
2011-09-08 11:15:37 Install-Us Pro 3.2 0%
2011-09-08 11:15:37 Install-Us Pro 3.22 0%
2011-09-08 11:15:37 Install-Us Pro 3.51 0%
2011-09-08 11:15:37 Install-Us Pro 3.53e 0%
2011-09-08 11:15:37 Install-Us Pro 3.7 Build 3 0%
2011-09-08 11:15:37 Install-Us Pro 3.72 0%
2011-09-08 11:15:37 Install-Us Pro v3.0 0%
2011-09-08 11:15:37 Install-Us Pro v3.2 0%
2011-09-08 11:15:37 Install-US Pro v3.21 Win9xNT 0%
2011-09-08 11:15:37 Install-Us Pro v3.22 0%
2011-09-08 11:15:37 Install-US Pro v3.22 Win9xNT 0%
2011-09-08 11:15:37 Install-Us Pro v3.51 0%
2011-09-08 11:15:37 Install-Us Pro v3.53e 0%
2011-09-08 11:15:37 Install-Us Pro v3.7 Build 3 0%
2011-09-08 11:15:37 Install-us Pro v3.7 Build 4 0%
2011-09-08 11:15:37 Install-Us Pro v3.72 20%
2011-09-08 11:15:37 Install-Us v3.7.Build 2 0%
2011-09-08 11:15:37 Install-Us v3.7.Build 2 by ElilA 0%
2011-09-08 11:18:34 Jaws PDF Creator 2.0 0%
2011-09-08 11:20:33 Just Install 2.0 0%
2011-09-08 11:20:33 Just! Audio 2.0 build 1.92 0%
2011-09-08 11:30:01 MBSS Fireworks 2.0 Build 2000 0%
2011-09-08 11:30:52 MemoryBoost Pro 2.0 (build 16) 0%
2011-09-08 11:33:31 Monterey Barcode Creator 2.0 Build 53360 0%
2011-09-08 11:33:33 MoonPhase 2.0 build 16 0%
2011-09-08 11:33:52 Movie DVD Creator Version: 2.0 0%
2011-09-08 11:41:35 NET-Shop Creator 2.0 RC1 0%
2011-09-08 12:28:57 PC Install Pro 6.0 0%
2011-09-08 12:28:57 PC Install Pro v6.0 0%
2011-09-08 12:30:36 Photo Movie Creator Version: 2.0 0%
2011-09-08 12:34:25 Playlist Creator for BlackBerry Bold 2.0 0%
2011-09-08 12:34:25 Playlist Creator for BlackBerry Curve 2.0 0%
2011-09-08 12:34:25 Playlist Creator for BlackBerry Pearl 2.0 0%
2011-09-08 12:34:25 Playlist Creator for BlackBerry Storm 2.0 0%
2011-09-08 12:34:25 Playlist Creator for BlackBerry Tour 2.0 55%
2011-09-08 12:34:25 Playlist Creator for Creative ZE 2.0 0%
2011-09-08 12:34:27 Playlist Creator for SanDisk Sansa Clip 2.0 0%
2011-09-08 12:34:27 Playlist Creator for SanDisk Sansa Fuze 2.0 0%
2011-09-08 12:34:27 Playlist Creator for Sony Ericsson Xperia 2.0 28%
2011-09-08 12:38:20 Private Sitez 2.0 build 03011 0%
2011-09-08 12:38:20 Private Sitez 2.0 Build 04011 0%
2011-09-08 12:40:37 RDB 2.0 Build 1101 0%
2011-09-08 12:44:06 Roxio Creator Pro 2010 0%
2011-09-08 12:44:06 Roxio Creator Pro 2011 0%
2011-09-08 12:46:11 Seamless Texture Creator 2.0 40%
2011-09-08 12:46:49 SensoBook Creator French 2.0 0%
2011-09-08 12:46:52 Serial Splitter 2.0 Build 526 0%
2011-09-08 12:49:56 Solid Capture 2.0 build 070 0%
2011-09-08 12:49:56 SolidCapture 2.0 Build 070 0%
2011-09-08 12:49:56 SolidConverter PDF 2.0 build 100 0%
2011-09-08 12:52:10 Tego Install Wizard 2.0 0%
2011-09-08 12:52:36 Tetruzzle 2.0 Build 20010502 0%
2011-09-08 12:52:50 TGRMN software - Vice Versa Pro 2.0 Build 2008 0%
2011-09-08 12:53:09 The Font Creator Program 2.0 0%
2011-09-08 12:53:09 The Font Creator Program 3.0 build 3.0.1.0 0%
2011-09-08 13:08:44 Update Now 2.0 build 991010 60%
2011-09-08 13:11:21 VB Build 2.0 0%
2011-09-08 13:11:41 ViceVersa Pro 2.0 Build 2008 0%
2011-09-08 13:13:00 VMware P2V Assistant 2.0 Build 0%
2011-09-08 13:15:45 Wave Convert Pro 2.0 build 2 0%
2011-09-08 13:15:54 Web Album Creator 2.0 0%
2011-09-08 13:16:06 Web Page Creator 32 v7.25 During Install Use 0%
2011-09-08 13:16:25 WebCalendar Creator Pro 2002.106 0%
2011-09-08 13:17:09 What is this 2.0 build 039 0%
2011-09-08 13:18:38 WinDVD Creator Platinum 2.0 platinum 0%
2011-09-08 13:18:38 WinDVD Creator Platinum Retail 2.0 0%
2011-09-08 13:18:38 WinDVD Creator Platinum Retail 2.0 Retail 2.0 0%
2011-09-08 13:22:37 Xilisoft DVD Creator 2.0 0%
2011-09-08 13:22:48 xjCharts Editor 2.2 build 41 0%
2011-09-08 13:22:48 xjCharts Editor v2.2 build 41 0%
2012-12-12 05:58:11 Clickteam Install Creator Pro v2.0 0%
2012-12-12 05:58:15 ClickTeam Install Creator Pro v2.0.0.43 0%
2012-12-12 15:40:21 Install Creator Pro v2.0 build #41 40%